Weather History for New Castle, PA

Change the Weather History Date:

Saturday, February 15, 2014

  Actual Average Record
Temperature  
Mean Temperature 15 °F -  
Max Temperature 24 °F 39 °F 69 °F (1938)
Min Temperature 3 °F 20 °F -8 °F (1943)
Degree Days  
Heating Degree Days 50    
Moisture  
Dew Point 14 °F    
Average Humidity 79    
Maximum Humidity 93    
Minimum Humidity 51    
Precipitation  
Precipitation 0.00 in - - ()
Sea Level Pressure  
Sea Level Pressure 29.89 in    
Wind  
Wind Speed 4 mph (NNW)    
Max Wind Speed 14 mph    
Max Gust Speed 21 mph    
Visibility 6 miles    
Events Snow    
Averages and records for this station are not official NWS values.
T = Trace of Precipitation, MM = Missing Value Source: NWS Daily Summary

Daily Weather History Graph

Daily Weather History Graph

Search for Another Location

Airport:

Trip Planner

Search our weather history database for the weather conditions in past years. The results will help you decide how hot, cold, wet, or windy it might be!

Date:

Astronomy

Feb. 15, 2014 Rise Set
Actual Time 7:16 AM EST 5:56 PM EST
Civil Twilight 6:47 AM EST 6:24 PM EST
Nautical Twilight 6:15 AM EST 6:56 PM EST
Astronomical Twilight 5:43 AM EST 7:28 PM EST
Moon 6:55 PM EST (2/15) 7:13 AM EST (2/15)
Length of Visible Light 11h 36m
Length of Day
10h 40m
Full, 100% of the Moon is Illuminated
Feb 15
Full
Feb 22
Last Quarter
Mar 1
New
Mar 8
First Quarter
Mar 16
Full

Hourly Weather History & Observations

Time (EST) Temp. Windchill Dew Point Humidity Pressure Visibility Wind Dir Wind Speed Gust Speed Precip Events Conditions
12:43 AM 23.0 °F - 17.6 °F 80% 29.74 in 5.0 mi Calm Calm - 0.00 in Snow Light Snow
12:56 AM 21.2 °F - 17.6 °F 86% 29.73 in 2.5 mi Calm Calm - N/A Snow Light Snow
1:01 AM 21.2 °F - 19.4 °F 93% 29.73 in 3.0 mi Calm Calm - 0.00 in Snow Light Snow
1:11 AM 21.2 °F - 17.6 °F 86% 29.73 in 4.0 mi Calm Calm - 0.00 in Snow Light Snow
1:18 AM 21.2 °F - 17.6 °F 86% 29.73 in 4.0 mi Calm Calm - 0.00 in Snow Light Snow
1:40 AM 21.2 °F 14.9 °F 19.4 °F 93% 29.73 in 4.0 mi NNE 4.6 mph - 0.00 in Snow Light Snow
1:49 AM 21.2 °F 13.6 °F 19.4 °F 93% 29.72 in 2.5 mi NNE 5.8 mph - 0.00 in Snow Light Snow
1:56 AM 21.0 °F 13.4 °F 19.0 °F 92% 29.81 in 2.0 mi NNE 5.8 mph - 0.00 in Snow Light Snow
2:04 AM 21.2 °F 12.6 °F 19.4 °F 93% 29.72 in 1.8 mi NNE 6.9 mph - 0.00 in Snow Light Snow
2:21 AM 21.2 °F 14.9 °F 19.4 °F 93% 29.71 in 2.5 mi North 4.6 mph - 0.00 in Snow Light Snow
2:43 AM 21.2 °F 14.9 °F 17.6 °F 86% 29.72 in 3.0 mi North 4.6 mph - 0.00 in Snow Light Snow
2:56 AM 21.0 °F 13.4 °F 18.1 °F 89% 29.80 in 3.0 mi North 5.8 mph - 0.00 in Snow Light Snow
3:09 AM 21.2 °F 14.9 °F 17.6 °F 86% 29.71 in 2.5 mi NNW 4.6 mph - 0.00 in Snow Light Snow
3:17 AM 21.2 °F 13.6 °F 17.6 °F 86% 29.71 in 2.0 mi North 5.8 mph - 0.00 in Snow Light Snow
3:56 AM 21.2 °F 13.6 °F 17.6 °F 86% 29.72 in 1.8 mi North 5.8 mph - N/A Snow Light Snow
4:06 AM 21.2 °F 16.4 °F 17.6 °F 86% 29.72 in 2.5 mi Variable 3.5 mph - 0.00 in Snow Light Snow
4:18 AM 21.2 °F 14.9 °F 17.6 °F 86% 29.72 in 3.0 mi North 4.6 mph - 0.00 in Snow Light Snow
4:30 AM 21.2 °F 14.9 °F 17.6 °F 86% 29.72 in 3.0 mi North 4.6 mph - 0.00 in Snow Light Snow
4:56 AM 21.0 °F 14.6 °F 16.2 °F 81% 29.82 in 6.0 mi North 4.6 mph - 0.00 in Snow Light Snow
5:56 AM 20.1 °F 12.3 °F 16.2 °F 85% 29.85 in 3.0 mi NW 5.8 mph - 0.00 in Snow Light Snow
6:56 AM 19.4 °F 10.4 °F 15.8 °F 86% 29.79 in 8.0 mi NW 6.9 mph - N/A   Mostly Cloudy
7:56 AM 20.1 °F 9.5 °F 15.1 °F 81% 29.92 in 7.0 mi NW 9.2 mph - N/A   Partly Cloudy
8:56 AM 20.1 °F 8.8 °F 16.2 °F 85% 29.96 in 7.0 mi NW 10.4 mph - 0.00 in Snow Light Snow
9:56 AM 21.2 °F 10.9 °F 15.8 °F 80% 29.88 in 6.0 mi NW 9.2 mph - N/A Snow Light Snow
10:56 AM 22.1 °F 12.0 °F 15.1 °F 74% 30.00 in 10.0 mi NNW 9.2 mph - 0.00 in Snow Light Snow
11:03 AM 21.2 °F 10.1 °F 15.8 °F 80% 29.91 in 10.0 mi NW 10.4 mph - 0.00 in Snow Light Snow
11:15 AM 23.0 °F 13.1 °F 14.0 °F 68% 29.91 in 10.0 mi NNW 9.2 mph - 0.00 in Snow Light Snow
11:48 AM 23.0 °F 12.4 °F 15.8 °F 74% 29.91 in 10.0 mi NW 10.4 mph - 0.00 in   Mostly Cloudy
11:56 AM 24.1 °F 13.7 °F 15.1 °F 69% 30.00 in 10.0 mi WNW 10.4 mph - 0.00 in   Mostly Cloudy
12:05 PM 23.0 °F 10.6 °F 14.0 °F 68% 29.91 in 10.0 mi NW 13.8 mph 18.4 mph N/A   Mostly Cloudy
12:56 PM 23.0 °F 13.1 °F 14.0 °F 68% 29.99 in 10.0 mi West 9.2 mph - N/A   Overcast
1:56 PM 24.1 °F 13.7 °F 12.0 °F 60% 30.00 in 10.0 mi WNW 10.4 mph - N/A   Mostly Cloudy
2:56 PM 24.1 °F 13.1 °F 9.1 °F 53% 30.02 in 10.0 mi WNW 11.5 mph 20.7 mph N/A   Clear
3:56 PM 24.1 °F 13.7 °F 8.1 °F 51% 30.03 in 10.0 mi WNW 10.4 mph 19.6 mph N/A   Clear
4:56 PM 21.0 °F 8.1 °F 6.1 °F 53% 30.06 in 10.0 mi NW 13.8 mph - N/A   Clear
5:56 PM 18.1 °F 5.6 °F 6.1 °F 59% 30.09 in 10.0 mi WNW 11.5 mph - N/A   Clear
6:56 PM 16.2 °F 7.6 °F 6.1 °F 65% 30.12 in 10.0 mi NW 5.8 mph - N/A   Clear
7:56 PM 13.1 °F 4.0 °F 5.0 °F 70% 30.16 in 10.0 mi West 5.8 mph - N/A   Clear
8:56 PM 11.1 °F - 4.1 °F 73% 30.17 in 10.0 mi Calm Calm - N/A   Clear
9:56 PM 8.1 °F - 3.0 °F 80% 30.17 in 10.0 mi Calm Calm - N/A   Clear
10:56 PM 6.1 °F - 2.1 °F 84% 30.17 in 10.0 mi Calm Calm - N/A   Clear
11:56 PM 3.0 °F - 0.1 °F 88% 30.16 in 7.0 mi Calm Calm - N/A   Clear